Погода в Койнасе

Погода в Койнасе : погода сейчас, прогноз погоды и архив. Всё, что Вы хотите узнать о погоде в Койнасе!

Поиск расширенной информации на нашем сайте:

Другие новости

Новости СМИ2

Главная страница сайта

Новости сайта

03.07.2017

Напоминаем, что на нашем специализированном сайте Метеоцентр.Азия вы можете получить высокодетализированные автоматические прогнозы погоды по пунктам России, СНГ и мира в авиационном формате (включающие направление и скорость ветра, видимость, явления погоды, количество и форму облачности, нижнюю и верхнюю границу облачности).


Погода в Койнасе - сегодня

Время (UTC), дата Ветер
(°,м/с) 
Видим.   Явления Облачность Т
(°С)
Тd
(°С)
f(%) Тe
(°С)
Pmin
(гПа)
dP
(гПа)
Po
(мм)
O2
(г/м3)
Тmin Tmax R s Состояние
почвы
15 14.10.17 030 (СВ) 50000 м  {туман}  9/0 средняя 
[Ac As]
+2.6 +2.6 100 +3  1013.8  -0.5  754  301    +4.8       
18 14.10.17 тихо ()   24000 м    10/10 240 м 
[St]
+1.5 +1.5 100 +2  1013.4  -0.4  754  302           
21 14.10.17 140 (ЮВ) 20000 м    10/10 240 м 
[St]
+1 +1 100 +2  1012.5  -0.9  753  302           
00 15.10.17 090 (В) 30000 м    10/10 210 м 
[St]
+0.3 +0.3 100 +1  1011.5  -1  753  303           
03 15.10.17 090 (В) 29000 м    10/10 210 м 
[St]
+1 +1 100 +2  1010.4  -1.1  752  302  +0.2         
06 15.10.17 080 (В) 24000 м    10/10 400 м 
[St]
+2.5 +2.5 100 +3  1009  -1.3  751  299           
09 15.10.17 080 (В) 45000 м    10/8 450 м средняя 
[St|Ac As]
+4.1 +3.5 96 +5  1008  -1  750  297           
12 15.10.17 080 (В) 26000 м  слаб. дождь  10/9 400 м средняя 
[Frnb|Ac As]
+4.3 +4.2 99 +5  1007.7  -0.2  750  297           
15 15.10.17 080 (В) 12000 м  слаб. дождь  10/10 300 м 
[Frnb|Ns]
+3.3 +3.3 100 +4  1008  0.2  750  298    +4.7     
18 15.10.17 090 (В) 14000 м  слаб. дождь  10/8 270 м средняя 
[Frnb|As op]
+3.7 +3.7 100 +5  1008.4  0.4  750  298           
21 15.10.17 тихо ()   30000 м  {дождь}  10/10 240 м 
[St]
+4.1 +4.1 100 +4  1008.9  0.5  751  297           
00 16.10.17 тихо ()   40000 м  {дождь}  10/10 270 м 
[St]
+4.5 +4.5 100 +5  1009.4  0.5  751  297           
03 16.10.17 130 (ЮВ) 40000 м  {дождь}  10/10 270 м 
[St]
+4.9 +4.9 100 +6  1009.6  0.2  751  297  +3.3       
06 16.10.17 140 (ЮВ) 40000 м    10/10 240 м 
[St]
+5.3 +5.3 100 +6  1009.5  751  296           
09 16.10.17 140 (ЮВ) 35000 м    10/10 240 м 
[St]
+5.3 +5.3 100 +6  1009.5  -0.1  751  296           
12 16.10.17 140 (ЮВ) 9000 м  дымка  10/10 240 м 
[St]
+5.7 +5.7 100 +7  1008.6  -0.8  751  295           
15 16.10.17 150 (ЮВ) 7000 м  слаб. дождь  10/9 150 м средняя 
[Frnb|As op]
+5.8 +5.8 100 +6  1007.1  -1.5  749  295    +6  0.8     
18 16.10.17 160 (Ю) 29000 м  в посл. час ливневой дождь  10/10 330 м 
[Frnb]
+6.5 +6.5 100 +6  1004.8  -2.3  748  293           
21 16.10.17 160 (Ю) 50000 м  {ливн. осадки}  8/0 средняя, верхняя 
[Ac As|Ci sp]
+5.3 +5.3 100 +5  1002.5  -2.2  746  294           
00 17.10.17 160 (Ю) 50000 м    9/9 1410 м 
[Sc]
+4.5 +4.5 100 +5  999  -3.5  743  294           
03 17.10.17 150 (ЮВ) 50000 м    9/9 600 м 
[Sc]
+5.5 +5.2 98 +4  994.5  -4.5  740  291  +4.5       
06 17.10.17 150 (ЮВ) 6000 м  слаб. ливневой дождь  10/10 300 м кучево-дожд. 
[Cb cap]
+4.6 +4.6 100 +3  991.6  -2.8  738  292           
09 17.10.17 160 (Ю) 18000 м  слаб. ливневой дождь  10/10 300 м кучево-дожд. 
[Cb cap]
+4.8 +4.8 100 +4  990.1  -1.5  737  291           
12 17.10.17 150 (ЮВ) 16000 м  слаб. ливневой дождь  10/8 480 м кучево-дожд., средняя 
[Cb cap|Ac As]
+3.8 +3.8 100 +5  989.7  -0.5  736  292           
15 17.10.17 160 (Ю) 35000 м  {ливн. осадки}  10/10 240 м 
[St]
+3.4 +3.4 100 +4  989.6  -0.1  736  292    +5.6     
Время (UTC), дата Ветер
(°,м/с) 
Видим.   Явления Облачность Т
(°С)
Тd
(°С)
f(%) Тe
(°С)
Pmin
(гПа)
dP
(гПа)
Po
(мм)
O2
(г/м3)
Тmin Tmax R s Состояние
почвы

Для получения пояснительной информации подведите курсор к названию столбца.

ПОГОДА в Койнасе - архив

Всё, что Вы хотите узнать о погоде в Койнасе - удобно и подробно!

Выберите нужную дату (начиная с 1 января 2015* года) и нажмите кнопку "Найти".
Будут отображены архивные сводки погоды по пункту Койнас, начиная с указанной даты.


Отображать данные в формате CSV (для использования в таблицах Excel)


Внимание! Наш архив погоды предназначен исключительно для личного некоммерческого использования в познавательных целях. Если Вам необходимы официальные справки о состоянии погоды (для производственных, юридических, коммерческих и т.п. целей), обращайтесь в органы Росгидромета.

*Примечание: данная дата относится к архиву по метеостанциям СССР (Россия, СНГ, Балтия).
Архив по метеостанциям Зарубежной Европы и Азии (кроме Китая) хранится 10 дней, по другим регионам земного шара (Китай, Африка, Америка, Австралия, Океания) - 1 день.

Койнас - район местоположения метеостанции


Название, широта, долгота, высота метеостанции:
Койнас 64.8°ш. 47.6°д. 64 м над ур. моря [Российская Федерация]

Дополнительная информация

В oтличие oт бoльшинства пoгoдных сайтoв мы публикуем пoдрoбную метеoинфoрмацию в детальнoм прoфессиoнальнoм фoрмате.

Характеристики температуры и влажнoсти вoздуха измеряются на высoте 2 м в тени вдали oт зданий и деревьев.
Скoрoсть ветра измеряется на высoте 10 м (на урoвне рoста челoвека скoрoсть ветра ниже в 1.5-2 раза). Если метеoстанция нахoдится в гoрoде или в лесу, тo скoрoсть ветра занижена на 2-4 м/с пo сравнению с oткрытым местoм. Скoрoсть ветра над акватoриями крупных рек и oзёр, а также на вершинах хoлмoв на 2-5 м/с выше, чем в oбычных услoвиях.
Атмoсфернoе давление в разных тoчках местнoсти мoжет значительнo oтличаться oт давления на метеoстанции, в зависимoсти oт услoвий рельефа (при пoдъёме на 10 м давление пoнижается примернo на 1 мм рт.ст.).